Location: Nicosia
(35.1670°N, 33.3670°E)
Time: 21:16:40
(UTC+02:00)

Hubble Space Telescope - Pass Details

Date: 04 December 2023
Orbit: 516 x 519 km, 28.5° (Epoch: 27 February)

Event Time Altitude Azimuth Distance (km) Brightness Sun altitude
Rises 17:53:53 0° 256° (WSW) 2,616 6.2 -16.0°
Reaches altitude 10° 17:57:16 10° 226° (SW) 1,730 4.3 -16.6°
Maximum altitude 17:58:58 12° 201° (SSW) 1,584 3.6 -17.0°
Drops below altitude 10° 18:00:39 10° 176° (S) 1,730 3.5 -17.3°
Enters shadow 18:03:32 - 149° (SSE) 2,451 4.0 -17.9°
